SL-12 R/B(2)

基本信息
目录编号:
28139
目录名称:
SL-12 R/B(2)
国际标识:
2003-060D
轨道中心:
EARTH
物体状态:
在轨
发射日期:
2003-12-28 UTC
国别:
俄罗斯(独联体) (CIS)
轨道信息
数据来源: 国际轨道数据
星历时间: 2026-07-13T21:43:44+0800
半长轴: 42155.452km
偏心率: 0.0018186
轨道倾角: 13.583°
近地点辐角: 235.427°
升交点赤经: 13.539°
平近点角: 304.102°
近地点: 35700.651km
远地点: 35853.979km
周期: 1435.623分钟
每日圈数: 1.003049
详细信息
发射场:
TTMTR
轨道高度:
MEO
数据来源:
AOE Integration Group
参考系:
TEME
时间系统:
UTC
历元类型:
SGP4
2D轨道图
3D轨道图
轨道高度分析图
轨道倾角分析图
轨道综合分析图
查看轨道综合分析图